Home > Weather > Naha > Past weeks

Flag for Japan Past Weather in Naha, Okinawa, Japan — Yesterday and Last 2 Weeks

Now
86 °F

Lots of rain. Broken clouds.


Feels Like: 99 °F
Forecast: 83 / 90 °F
Wind: 12 mph from Northeast

Location: Naha Airport

Current Time: Jul 30, 2016 at 2:45:19 PM

Latest Report: Jul 30, 2016 at 2:00 PM


Visibility: 2 mi

Pressure: 29.74 "Hg

Humidity: 79%

Dew Point: 79 °F

Location of NahaLocation

Past Weather in Naha — Graph

°F

Naha Temperature Yesterday

Maximum temperature yesterday: 90 °F (at 11:00 AM)
Minimum temperature yesterday: 82 °F (at 6:30 PM)
Average temperature yesterday: 86 °F

High & Low Weather Summary for the Past Weeks

 TemperatureHumidityPressure
High90 °F (Jul 15, 1:00 PM)89% (Jul 18, 12:30 PM)29.92 "Hg (Jul 18, 12:30 PM)
Low77 °F (Jul 25, 2:00 PM)63% (Jul 20, 2:00 PM)29.68 "Hg (Jul 15, 5:30 PM)
Average86 °F76%29.79 "Hg
* Reported Jul 15 1:00 PM — Jul 30 1:30 PM, Naha, Weather by CustomWeather, © 2016

Note: Actual official high and low records may vary slightly from our data, if they occured in-between our weather recording intervals... More about our weather records

Advertising

Naha Weather History for the Previous 24 Hours

Scroll right to see more
 ConditionsComfort  
Time TempWeatherWind HumidityBarometerVisibility
1:30 PM
Sat, Jul 30
86 °FRain showers. Broken clouds.12 mph79%29.71 "HgN/A
1:00 PM86 °FScattered showers. Broken clouds.13 mph75%29.71 "HgN/A
12:30 PM86 °FBroken clouds.9 mph79%29.74 "HgN/A
12:00 PM82 °FLots of rain. Broken clouds.15 mph89%29.74 "HgN/A
11:30 AM82 °FRain showers. Broken clouds.13 mph89%29.74 "HgN/A
11:00 AM86 °FLots of rain. Broken clouds.8 mph84%29.74 "HgN/A
10:30 AM84 °FBroken clouds.7 mph84%29.77 "HgN/A
10:00 AM82 °FThunderstorms. Broken clouds.7 mph89%29.77 "HgN/A
9:30 AM81 °FThunderstorms. Partly sunny.12 mph89%29.77 "Hg2 mi
9:00 AM82 °FThunderstorms. Broken clouds.9 mph89%29.74 "HgN/A
8:30 AM81 °FLots of rain. Broken clouds.10 mph89%29.74 "Hg5 mi
8:00 AM82 °FRain showers. Broken clouds.10 mph84%29.74 "Hg6 mi
7:30 AM84 °FScattered showers. Broken clouds.8 mph79%29.74 "HgN/A
7:00 AM84 °FScattered showers. Partly sunny.8 mph79%29.74 "HgN/A
6:30 AM84 °FPartly sunny.9 mph79%29.74 "HgN/A
6:00 AM84 °FScattered showers. Broken clouds.6 mph79%29.71 "HgN/A
5:30 AM84 °FScattered showers. Passing clouds.8 mph79%29.71 "HgN/A
5:00 AM84 °FScattered showers. Passing clouds.8 mph79%29.71 "HgN/A
4:30 AM84 °FScattered showers. Partly cloudy.7 mph79%29.71 "HgN/A
4:00 AM84 °FScattered showers. Passing clouds.8 mph79%29.71 "HgN/A
3:30 AM84 °FScattered showers. Passing clouds.6 mph79%29.71 "HgN/A
3:00 AM84 °FScattered showers. Partly cloudy.6 mph74%29.74 "HgN/A
2:30 AM84 °FScattered showers. Partly cloudy.5 mph74%29.74 "HgN/A
2:00 AM84 °FScattered showers. Partly cloudy.7 mph79%29.74 "HgN/A
1:30 AM84 °FSprinkles. Partly cloudy.5 mph79%29.74 "HgN/A
1:00 AM84 °FRain showers. Partly cloudy.6 mph84%29.74 "HgN/A
12:30 AM84 °FScattered showers. Partly cloudy.5 mph79%29.74 "HgN/A
12:00 AM86 °FScattered showers. Passing clouds.6 mph75%29.77 "HgN/A
11:30 PM
Fri, Jul 29
86 °FPassing clouds.5 mph75%29.77 "HgN/A
11:00 PM86 °FPassing clouds.6 mph75%29.77 "HgN/A
10:30 PM86 °FPassing clouds.8 mph75%29.77 "HgN/A
10:00 PM86 °FPassing clouds.7 mph75%29.77 "HgN/A
9:30 PM86 °FPassing clouds.8 mph75%29.77 "HgN/A
9:00 PM86 °FPassing clouds.6 mph75%29.77 "HgN/A
8:30 PM86 °FScattered showers. Passing clouds.6 mph75%29.74 "HgN/A
8:00 PM86 °FPassing clouds.5 mph75%29.77 "HgN/A
7:30 PM84 °FPartly cloudy.6 mph79%29.77 "HgN/A
7:00 PM82 °FRain showers. Broken clouds.9 mph89%29.77 "HgN/A
6:30 PM82 °FLots of rain. Broken clouds.7 mph89%29.74 "HgN/A
6:00 PM86 °FRain showers. Partly sunny.5 mph75%29.74 "HgN/A
5:30 PM86 °FScattered showers. Partly sunny.7 mph75%29.74 "HgN/A
5:00 PM88 °FRain showers. Broken clouds.7 mph66%29.74 "HgN/A
4:45 PM88 °FRain showers. Partly sunny.8 mph70%29.74 "HgN/A
4:30 PM90 °FRain showers. Partly sunny.14 mph67%29.74 "HgN/A
4:00 PM90 °FScattered showers. Partly sunny.13 mph67%29.74 "HgN/A
3:30 PM90 °FScattered showers. Partly sunny.15 mph67%29.74 "HgN/A
3:00 PM90 °FScattered showers. Partly sunny.16 mph67%29.74 "HgN/A
2:30 PM90 °FThunderstorms. Partly sunny.16 mph67%29.77 "HgN/A
2:00 PM90 °FScattered showers. Partly sunny.14 mph67%29.77 "HgN/A
Weather by CustomWeather, © 2016

See weather overviewHow to use our weather pages